Time,TemperatureF,DewpointF,PressureIn,WindDirection,WindDirectionDegrees,WindSpeedMPH,WindSpeedGustMPH,Humidity,HourlyPrecipIn,Conditions,Clouds,dailyrainin,SoftwareType,DateUTC
2013-04-09 00:00:00,69.8,62.3,30.08,ENE,62,0.0,0.0,77,0.00,,OVC,0.00,WeatherDisplay:10.37,2013-04-09 04:00:00,
2013-04-09 00:02:00,69.6,62.1,30.08,ENE,62,0.0,0.0,77,0.00,,OVC,0.00,WeatherDisplay:10.37,2013-04-09 04:02:00,
2013-04-09 00:07:00,69.4,62.2,30.08,ENE,62,0.0,0.0,78,0.00,,OVC,0.00,WeatherDisplay:10.37,2013-04-09 04:07:00,
2013-04-09 00:12:00,69.3,62.1,30.08,ENE,62,0.0,0.0,78,0.00,,OVC,0.00,WeatherDisplay:10.37,2013-04-09 04:12:00,
2013-04-09 00:17:00,69.1,62.3,30.08,ENE,62,0.0,0.0,79,0.00,,OVC,0.00,WeatherDisplay:10.37,2013-04-09 04:17:00,
2013-04-09 00:22:00,69.1,62.3,30.08,ENE,62,0.0,0.0,79,0.00,,OVC,0.00,WeatherDisplay:10.37,2013-04-09 04:22:00,
2013-04-09 00:27:00,68.9,62.5,30.08,ENE,62,0.0,0.0,80,0.00,,OVC,0.00,WeatherDisplay:10.37,2013-04-09 04:27:00,
2013-04-09 00:32:00,68.8,62.4,30.08,ENE,62,0.0,0.0,80,0.00,,OVC,0.00,WeatherDisplay:10.37,2013-04-09 04:32:00,
2013-04-09 00:37:00,68.6,62.5,30.08,ENE,62,0.0,0.0,81,0.00,,OVC,0.00,WeatherDisplay:10.37,2013-04-09 04:37:00,
2013-04-09 00:42:00,68.6,62.5,30.08,ENE,62,0.0,0.0,81,0.00,,OVC,0.00,WeatherDisplay:10.37,2013-04-09 04:42:00,
2013-04-09 00:47:00,68.4,62.3,30.08,ENE,62,0.0,0.0,81,0.00,,OVC,0.00,WeatherDisplay:10.37,2013-04-09 04:47:00,
2013-04-09 00:52:00,68.3,62.6,30.08,ENE,62,0.0,0.0,82,0.00,,OVC,0.00,WeatherDisplay:10.37,2013-04-09 04:52:00,
2013-04-09 00:57:00,68.3,62.6,30.08,ENE,62,0.0,0.0,82,0.00,,OVC,0.00,WeatherDisplay:10.37,2013-04-09 04:57:00,
2013-04-09 01:02:00,68.3,62.9,30.07,ENE,62,0.0,0.0,83,0.00,,OVC,0.00,WeatherDisplay:10.37,2013-04-09 05:02:00,
2013-04-09 01:07:00,68.3,62.9,30.07,ENE,62,0.0,0.0,83,0.00,,OVC,0.00,WeatherDisplay:10.37,2013-04-09 05:07:00,
2013-04-09 01:12:00,68.3,62.9,30.07,ENE,62,0.0,0.0,83,0.00,,OVC,0.00,WeatherDisplay:10.37,2013-04-09 05:12:00,
2013-04-09 01:17:00,68.1,62.7,30.07,ENE,62,0.0,0.0,83,0.00,,OVC,0.00,WeatherDisplay:10.37,2013-04-09 05:17:00,
2013-04-09 01:22:00,68.1,63.1,30.07,ENE,62,0.0,0.0,84,0.00,,OVC,0.00,WeatherDisplay:10.37,2013-04-09 05:22:00,
2013-04-09 01:27:00,67.9,62.9,30.07,ENE,62,0.0,0.0,84,0.00,,OVC,0.00,WeatherDisplay:10.37,2013-04-09 05:27:00,
2013-04-09 01:32:00,67.9,62.9,30.07,ENE,62,0.0,0.0,84,0.00,,OVC,0.00,WeatherDisplay:10.37,2013-04-09 05:32:00,
2013-04-09 01:37:00,67.9,63.2,30.07,ENE,62,0.0,0.0,85,0.00,,OVC,0.00,WeatherDisplay:10.37,2013-04-09 05:37:00,
2013-04-09 01:42:00,67.9,63.2,30.07,ENE,62,0.0,0.0,85,0.00,,OVC,0.00,WeatherDisplay:10.37,2013-04-09 05:42:00,
2013-04-09 01:47:00,67.9,63.2,30.06,ENE,62,0.0,0.0,85,0.00,,OVC,0.00,WeatherDisplay:10.37,2013-04-09 05:47:00,
2013-04-09 01:52:00,67.8,63.1,30.06,ENE,62,0.0,0.0,85,0.00,,OVC,0.00,WeatherDisplay:10.37,2013-04-09 05:52:00,
2013-04-09 01:57:00,67.8,63.1,30.06,ENE,62,0.0,0.0,85,0.00,,OVC,0.00,WeatherDisplay:10.37,2013-04-09 05:57:00,
2013-04-09 02:02:00,67.8,63.5,30.06,ENE,62,0.0,0.0,86,0.00,,OVC,0.00,WeatherDisplay:10.37,2013-04-09 06:02:00,
2013-04-09 02:07:00,67.6,63.3,30.06,ENE,62,0.0,0.0,86,0.00,,OVC,0.00,WeatherDisplay:10.37,2013-04-09 06:07:00,
2013-04-09 02:12:00,67.4,63.1,30.06,ENE,62,0.0,0.0,86,0.00,,OVC,0.00,WeatherDisplay:10.37,2013-04-09 06:12:00,
2013-04-09 02:17:00,67.4,63.1,30.05,ENE,62,0.0,0.0,86,0.00,,OVC,0.00,WeatherDisplay:10.37,2013-04-09 06:17:00,
2013-04-09 02:22:00,67.4,63.4,30.05,ENE,62,0.0,0.0,87,0.00,,OVC,0.00,WeatherDisplay:10.37,2013-04-09 06:22:00,
2013-04-09 02:27:00,67.3,63.3,30.05,ENE,62,0.0,0.0,87,0.00,,OVC,0.00,WeatherDisplay:10.37,2013-04-09 06:27:00,
2013-04-09 02:32:00,67.3,63.3,30.04,ENE,62,0.0,0.0,87,0.00,,OVC,0.00,WeatherDisplay:10.37,2013-04-09 06:32:00,
2013-04-09 02:37:00,67.1,63.1,30.04,ENE,62,0.0,0.0,87,0.00,,OVC,0.00,WeatherDisplay:10.37,2013-04-09 06:37:00,
2013-04-09 02:42:00,66.9,62.9,30.04,ENE,62,0.0,0.0,87,0.00,,OVC,0.00,WeatherDisplay:10.37,2013-04-09 06:42:00,
2013-04-09 02:47:00,66.8,63.1,30.04,ENE,62,0.0,0.0,88,0.00,,OVC,0.00,WeatherDisplay:10.37,2013-04-09 06:47:00,
2013-04-09 02:53:00,66.8,63.1,30.04,ENE,62,0.0,0.0,88,0.00,,OVC,0.00,WeatherDisplay:10.37,2013-04-09 06:53:00,
2013-04-09 02:58:00,66.6,62.9,30.04,ENE,62,0.0,0.0,88,0.00,,OVC,0.00,WeatherDisplay:10.37,2013-04-09 06:58:00,
2013-04-09 03:03:00,66.4,62.7,30.03,ENE,62,0.0,0.0,88,0.00,,OVC,0.00,WeatherDisplay:10.37,2013-04-09 07:03:00,
2013-04-09 03:08:00,66.4,62.7,30.03,ENE,62,0.0,0.0,88,0.00,,OVC,0.00,WeatherDisplay:10.37,2013-04-09 07:08:00,
2013-04-09 03:13:00,66.4,62.7,30.03,ENE,62,0.0,0.0,88,0.00,,OVC,0.00,WeatherDisplay:10.37,2013-04-09 07:13:00,
2013-04-09 03:18:00,66.6,63.3,30.03,ENE,62,0.0,0.0,89,0.00,,OVC,0.00,WeatherDisplay:10.37,2013-04-09 07:18:00,
2013-04-09 03:23:00,66.6,63.3,30.03,ENE,62,0.0,0.0,89,0.00,,OVC,0.00,WeatherDisplay:10.37,2013-04-09 07:23:00,
2013-04-09 03:28:00,66.6,63.3,30.03,ENE,62,0.0,0.0,89,0.00,,OVC,0.00,WeatherDisplay:10.37,2013-04-09 07:28:00,
2013-04-09 03:33:00,66.6,63.3,30.03,ENE,62,0.0,0.0,89,0.00,,OVC,0.00,WeatherDisplay:10.37,2013-04-09 07:33:00,
2013-04-09 03:38:00,66.4,63.1,30.03,ENE,62,0.0,0.0,89,0.00,,OVC,0.00,WeatherDisplay:10.37,2013-04-09 07:38:00,
2013-04-09 03:43:00,66.4,63.1,30.03,ENE,62,0.0,0.0,89,0.00,,OVC,0.00,WeatherDisplay:10.37,2013-04-09 07:43:00,
2013-04-09 03:48:00,66.4,63.1,30.02,ENE,62,0.0,0.0,89,0.00,,OVC,0.00,WeatherDisplay:10.37,2013-04-09 07:48:00,
2013-04-09 03:53:00,66.3,63.0,30.02,ENE,62,0.0,0.0,89,0.00,,OVC,0.00,WeatherDisplay:10.37,2013-04-09 07:53:00,
2013-04-09 03:58:00,66.3,63.0,30.02,ENE,62,0.0,0.0,89,0.00,,OVC,0.00,WeatherDisplay:10.37,2013-04-09 07:58:00,
2013-04-09 04:03:00,66.3,63.0,30.02,ENE,62,0.0,0.0,89,0.00,,OVC,0.00,WeatherDisplay:10.37,2013-04-09 08:03:00,
2013-04-09 04:08:00,66.4,63.4,30.02,ENE,62,0.0,0.0,90,0.00,,OVC,0.00,WeatherDisplay:10.37,2013-04-09 08:08:00,
2013-04-09 04:13:00,66.8,63.8,30.02,ENE,62,0.0,0.0,90,0.00,,OVC,0.00,WeatherDisplay:10.37,2013-04-09 08:13:00,
2013-04-09 04:18:00,66.6,63.3,30.02,ENE,62,0.0,0.0,89,0.00,,OVC,0.00,WeatherDisplay:10.37,2013-04-09 08:18:00,
2013-04-09 04:23:00,66.6,63.3,30.02,ENE,62,0.0,0.0,89,0.00,,OVC,0.00,WeatherDisplay:10.37,2013-04-09 08:23:00,
2013-04-09 04:28:00,66.4,63.1,30.02,ENE,62,0.0,0.0,89,0.00,,OVC,0.00,WeatherDisplay:10.37,2013-04-09 08:28:00,
2013-04-09 04:33:00,66.4,63.1,30.02,ENE,62,0.0,0.0,89,0.00,,OVC,0.00,WeatherDisplay:10.37,2013-04-09 08:33:00,
2013-04-09 04:38:00,66.3,63.0,30.02,ENE,62,0.0,0.0,89,0.00,,OVC,0.00,WeatherDisplay:10.37,2013-04-09 08:38:00,
2013-04-09 04:43:00,66.3,63.0,30.02,ENE,62,0.0,0.0,89,0.00,,OVC,0.00,WeatherDisplay:10.37,2013-04-09 08:43:00,
2013-04-09 04:48:00,66.1,62.8,30.02,ENE,62,0.0,0.0,89,0.00,,OVC,0.00,WeatherDisplay:10.37,2013-04-09 08:48:00,
2013-04-09 04:53:00,66.1,62.8,30.02,ENE,62,0.0,0.0,89,0.00,,OVC,0.00,WeatherDisplay:10.37,2013-04-09 08:53:00,
2013-04-09 04:58:00,66.0,62.7,30.02,ENE,62,0.0,0.0,89,0.00,,OVC,0.00,WeatherDisplay:10.37,2013-04-09 08:58:00,
2013-04-09 05:03:00,66.0,63.0,30.03,ENE,62,0.0,0.0,90,0.00,,OVC,0.00,WeatherDisplay:10.37,2013-04-09 09:03:00,
2013-04-09 05:08:00,66.1,63.1,30.03,ENE,62,0.0,0.0,90,0.00,,OVC,0.00,WeatherDisplay:10.37,2013-04-09 09:08:00,
2013-04-09 05:13:00,66.1,63.1,30.03,ENE,62,0.0,0.0,90,0.00,,OVC,0.00,WeatherDisplay:10.37,2013-04-09 09:13:00,
2013-04-09 05:18:00,66.0,63.0,30.03,ENE,62,0.0,0.0,90,0.00,,OVC,0.00,WeatherDisplay:10.37,2013-04-09 09:18:00,
2013-04-09 05:23:00,66.0,63.0,30.03,ENE,62,0.0,0.0,90,0.00,,OVC,0.00,WeatherDisplay:10.37,2013-04-09 09:23:00,
2013-04-09 05:28:00,65.8,62.8,30.03,ENE,62,0.0,0.0,90,0.00,,OVC,0.00,WeatherDisplay:10.37,2013-04-09 09:28:00,
2013-04-09 05:33:00,65.6,62.6,30.04,ENE,62,0.0,0.0,90,0.00,,OVC,0.00,WeatherDisplay:10.37,2013-04-09 09:33:00,
2013-04-09 05:38:00,65.6,62.6,30.04,ENE,62,0.0,0.0,90,0.00,,OVC,0.00,WeatherDisplay:10.37,2013-04-09 09:38:00,
2013-04-09 05:43:00,65.6,62.6,30.04,ENE,62,0.0,0.0,90,0.00,,OVC,0.00,WeatherDisplay:10.37,2013-04-09 09:43:00,
2013-04-09 05:48:00,65.6,62.6,30.04,ENE,62,0.0,0.0,90,0.00,,OVC,0.00,WeatherDisplay:10.37,2013-04-09 09:48:00,
2013-04-09 05:53:00,65.6,62.6,30.04,ENE,62,0.0,0.0,90,0.00,,OVC,0.00,WeatherDisplay:10.37,2013-04-09 09:53:00,
2013-04-09 05:58:00,65.5,62.5,30.04,ENE,62,0.0,0.0,90,0.00,,OVC,0.00,WeatherDisplay:10.37,2013-04-09 09:58:00,
2013-04-09 06:03:00,65.5,62.8,30.04,ENE,62,0.0,0.0,91,0.00,,OVC,0.00,WeatherDisplay:10.37,2013-04-09 10:03:00,
2013-04-09 06:08:00,65.3,62.6,30.04,ENE,62,0.0,0.0,91,0.00,,OVC,0.00,WeatherDisplay:10.37,2013-04-09 10:08:00,
2013-04-09 06:13:00,65.3,62.6,30.04,ENE,62,0.0,0.0,91,0.00,,OVC,0.00,WeatherDisplay:10.37,2013-04-09 10:13:00,
2013-04-09 06:18:00,65.3,62.6,30.04,ENE,62,0.0,0.0,91,0.00,,OVC,0.00,WeatherDisplay:10.37,2013-04-09 10:18:00,
2013-04-09 06:23:00,65.5,62.8,30.04,ENE,62,0.0,0.0,91,0.00,,OVC,0.00,WeatherDisplay:10.37,2013-04-09 10:23:00,
2013-04-09 06:29:00,65.5,62.8,30.04,ENE,62,0.0,0.0,91,0.00,,OVC,0.00,WeatherDisplay:10.37,2013-04-09 10:29:00,
2013-04-09 06:34:00,65.6,62.9,30.05,ENE,62,0.0,0.0,91,0.00,,OVC,0.00,WeatherDisplay:10.37,2013-04-09 10:34:00,
2013-04-09 06:39:00,65.6,62.9,30.05,ENE,62,0.0,0.0,91,0.00,,OVC,0.00,WeatherDisplay:10.37,2013-04-09 10:39:00,
2013-04-09 06:44:00,65.6,62.9,30.06,ENE,62,0.0,0.0,91,0.00,,OVC,0.00,WeatherDisplay:10.37,2013-04-09 10:44:00,
2013-04-09 06:50:00,65.6,62.9,30.06,ENE,62,0.0,0.0,91,0.00,,OVC,0.00,WeatherDisplay:10.37,2013-04-09 10:50:00,
2013-04-09 06:55:00,65.6,62.9,30.06,ENE,62,0.0,0.0,91,0.00,,OVC,0.00,WeatherDisplay:10.37,2013-04-09 10:55:00,
2013-04-09 07:01:00,65.6,62.9,30.06,ENE,62,0.0,0.0,91,0.00,,OVC,0.00,WeatherDisplay:10.37,2013-04-09 11:01:00,
2013-04-09 07:06:00,65.6,62.9,30.06,ENE,62,0.0,0.0,91,0.00,,OVC,0.00,WeatherDisplay:10.37,2013-04-09 11:06:00,
2013-04-09 07:11:00,65.6,63.2,30.06,ENE,62,0.0,0.0,92,0.00,,OVC,0.00,WeatherDisplay:10.37,2013-04-09 11:11:00,
2013-04-09 07:16:00,65.6,63.2,30.06,ENE,62,0.0,0.0,92,0.00,,OVC,0.00,WeatherDisplay:10.37,2013-04-09 11:16:00,
2013-04-09 07:21:00,66.1,63.7,30.06,ENE,62,0.0,0.0,92,0.00,,OVC,0.00,WeatherDisplay:10.37,2013-04-09 11:21:00,
2013-04-09 07:26:00,66.6,64.2,30.06,ENE,62,0.0,0.0,92,0.00,,OVC,0.00,WeatherDisplay:10.37,2013-04-09 11:26:00,
2013-04-09 07:31:00,66.9,64.5,30.06,ENE,62,0.0,0.0,92,0.00,,OVC,0.00,WeatherDisplay:10.37,2013-04-09 11:31:00,
2013-04-09 07:36:00,66.9,64.5,30.06,ENE,62,0.0,0.0,92,0.00,,OVC,0.00,WeatherDisplay:10.37,2013-04-09 11:36:00,
2013-04-09 07:41:00,67.1,64.7,30.06,ENE,62,0.0,0.0,92,0.00,,OVC,0.00,WeatherDisplay:10.37,2013-04-09 11:41:00,
2013-04-09 07:46:00,67.8,65.4,30.06,ENE,62,0.0,0.0,92,0.00,,OVC,0.00,WeatherDisplay:10.37,2013-04-09 11:46:00,
2013-04-09 07:51:00,68.6,66.2,30.06,SE,140,2.3,2.3,92,0.00,,OVC,0.00,WeatherDisplay:10.37,2013-04-09 11:51:00,
2013-04-09 07:56:00,69.1,66.4,30.06,SE,140,0.0,0.0,91,0.00,,OVC,0.00,WeatherDisplay:10.37,2013-04-09 11:56:00,
2013-04-09 08:01:00,69.6,66.5,30.07,SE,140,0.0,0.0,90,0.00,,OVC,0.00,WeatherDisplay:10.37,2013-04-09 12:01:00,
2013-04-09 08:06:00,69.9,66.5,30.07,SE,130,0.0,0.0,89,0.00,CLR,OVC,0.00,WeatherDisplay:10.37,2013-04-09 12:06:00,
2013-04-09 08:11:00,70.1,66.4,30.07,SE,137,0.0,0.0,88,0.00,CLR,OVC,0.00,WeatherDisplay:10.37,2013-04-09 12:11:00,
2013-04-09 08:16:00,70.3,66.2,30.07,SE,124,0.0,0.0,87,0.00,CLR,OVC,0.00,WeatherDisplay:10.37,2013-04-09 12:16:00,
2013-04-09 08:22:00,70.6,66.2,30.07,ESE,123,0.0,0.0,86,0.00,CLR,OVC,0.00,WeatherDisplay:10.37,2013-04-09 12:22:00,
2013-04-09 08:27:00,71.1,66.4,30.07,ESE,123,5.8,0.0,85,0.00,CLR,OVC,0.00,WeatherDisplay:10.37,2013-04-09 12:27:00,
2013-04-09 08:32:00,72.0,66.2,30.07,ENE,66,0.0,0.0,82,0.00,CLR,OVC,0.00,WeatherDisplay:10.37,2013-04-09 12:32:00,
2013-04-09 08:37:00,72.7,66.2,30.07,ESE,119,0.0,0.0,80,0.00,CLR,OVC,0.00,WeatherDisplay:10.37,2013-04-09 12:37:00,
2013-04-09 08:42:00,73.2,66.3,30.07,ENE,60,0.0,0.0,79,0.00,CLR,OVC,0.00,WeatherDisplay:10.37,2013-04-09 12:42:00,
2013-04-09 08:47:00,73.7,66.4,30.08,ENE,78,0.0,0.0,78,0.00,CLR,OVC,0.00,WeatherDisplay:10.37,2013-04-09 12:47:00,
2013-04-09 08:52:00,74.2,66.1,30.08,NE,43,0.0,0.0,76,0.00,CLR,OVC,0.00,WeatherDisplay:10.37,2013-04-09 12:52:00,
2013-04-09 08:57:00,74.7,66.2,30.08,ESE,118,9.2,0.0,75,0.00,CLR,OVC,0.00,WeatherDisplay:10.37,2013-04-09 12:57:00,
2013-04-09 09:02:00,75.3,66.4,30.08,East,92,12.7,12.7,74,0.00,CLR,OVC,0.00,WeatherDisplay:10.37,2013-04-09 13:02:00,
2013-04-09 09:07:00,75.4,65.3,30.08,ENE,66,24.2,24.2,71,0.00,CLR,OVC,0.00,WeatherDisplay:10.37,2013-04-09 13:07:00,
2013-04-09 09:12:00,75.8,65.3,30.08,SE,142,1.2,1.2,70,0.00,CLR,OVC,0.00,WeatherDisplay:10.37,2013-04-09 13:12:00,
2013-04-09 09:17:00,76.0,65.1,30.09,ENE,61,13.8,13.8,69,0.00,CLR,OVC,0.00,WeatherDisplay:10.37,2013-04-09 13:17:00,
2013-04-09 09:22:00,76.1,65.2,30.09,SE,135,19.6,19.6,69,0.00,CLR,OVC,0.00,WeatherDisplay:10.37,2013-04-09 13:22:00,
2013-04-09 09:27:00,76.3,65.0,30.09,SE,126,26.5,26.5,68,0.00,CLR,OVC,0.00,WeatherDisplay:10.37,2013-04-09 13:27:00,
2013-04-09 09:33:00,76.5,65.1,30.09,SE,146,17.0,17.0,68,0.00,CLR,OVC,0.00,WeatherDisplay:10.37,2013-04-09 13:33:00,
2013-04-09 09:38:00,76.5,65.6,30.09,SE,136,24.0,24.0,69,0.00,CLR,OVC,0.00,WeatherDisplay:10.37,2013-04-09 13:38:00,
2013-04-09 09:43:00,76.3,65.0,30.09,ESE,123,15.0,0.0,68,0.00,CLR,OVC,0.00,WeatherDisplay:10.37,2013-04-09 13:43:00,
2013-04-09 09:48:00,76.5,65.1,30.10,SE,135,19.6,19.6,68,0.00,CLR,OVC,0.00,WeatherDisplay:10.37,2013-04-09 13:48:00,
2013-04-09 09:53:00,76.5,65.1,30.10,SE,146,6.9,6.9,68,0.00,CLR,OVC,0.00,WeatherDisplay:10.37,2013-04-09 13:53:00,
2013-04-09 09:58:00,76.7,64.9,30.10,SSE,148,20.7,20.7,67,0.00,CLR,OVC,0.00,WeatherDisplay:10.37,2013-04-09 13:58:00,
2013-04-09 10:03:00,77.2,65.0,30.11,East,101,12.7,12.7,66,0.00,CLR,OVC,0.00,WeatherDisplay:10.37,2013-04-09 14:03:00,
2013-04-09 10:08:00,77.6,65.8,30.11,ENE,59,0.0,0.0,67,0.00,CLR,OVC,0.00,WeatherDisplay:10.37,2013-04-09 14:08:00,
2013-04-09 10:13:00,77.6,65.8,30.11,East,101,0.0,0.4,67,0.00,CLR,OVC,0.00,WeatherDisplay:10.37,2013-04-09 14:13:00,
2013-04-09 10:18:00,77.4,65.6,30.11,SE,135,10.4,10.4,67,0.00,CLR,OVC,0.00,WeatherDisplay:10.37,2013-04-09 14:18:00,
2013-04-09 10:23:00,77.2,65.0,30.11,SSE,147,17.3,17.3,66,0.00,CLR,OVC,0.00,WeatherDisplay:10.37,2013-04-09 14:23:00,
2013-04-09 10:28:00,77.2,65.4,30.11,SSE,149,12.7,12.7,67,0.00,CLR,OVC,0.00,WeatherDisplay:10.37,2013-04-09 14:28:00,
2013-04-09 10:33:00,77.2,65.4,30.12,SSE,153,12.7,12.7,67,0.00,CLR,OVC,0.00,WeatherDisplay:10.37,2013-04-09 14:33:00,
2013-04-09 10:38:00,77.4,65.1,30.12,SE,143,13.8,13.8,66,0.00,CLR,OVC,0.00,WeatherDisplay:10.37,2013-04-09 14:38:00,
2013-04-09 10:43:00,77.6,65.8,30.12,SE,138,8.1,8.1,67,0.00,CLR,OVC,0.00,WeatherDisplay:10.37,2013-04-09 14:43:00,
2013-04-09 10:48:00,78.1,67.1,30.12,NNW,342,3.5,3.5,69,0.00,CLR,OVC,0.00,WeatherDisplay:10.37,2013-04-09 14:48:00,
2013-04-09 10:53:00,78.3,66.9,30.12,East,86,11.5,11.5,68,0.00,CLR,OVC,0.00,WeatherDisplay:10.37,2013-04-09 14:53:00,
2013-04-09 10:58:00,78.3,66.4,30.12,NE,53,4.6,4.6,67,0.00,CLR,OVC,0.00,WeatherDisplay:10.37,2013-04-09 14:58:00,
2013-04-09 11:03:00,78.1,66.7,30.12,SE,129,0.0,0.0,68,0.00,CLR,OVC,0.00,WeatherDisplay:10.37,2013-04-09 15:03:00,
2013-04-09 11:08:00,77.9,66.5,30.12,SE,134,0.0,0.0,68,0.00,CLR,OVC,0.00,WeatherDisplay:10.37,2013-04-09 15:08:00,
2013-04-09 11:13:00,77.6,66.6,30.12,East,89,0.0,0.0,69,0.00,CLR,OVC,0.00,WeatherDisplay:10.37,2013-04-09 15:13:00,
2013-04-09 11:19:00,77.9,66.5,30.12,SE,126,16.1,16.1,68,0.00,CLR,OVC,0.00,WeatherDisplay:10.37,2013-04-09 15:19:00,
2013-04-09 11:24:00,78.3,66.0,30.12,SW,218,9.2,9.2,66,0.00,CLR,OVC,0.00,WeatherDisplay:10.37,2013-04-09 15:24:00,
2013-04-09 11:29:00,78.3,66.4,30.12,East,85,17.3,17.3,67,0.00,CLR,OVC,0.00,WeatherDisplay:10.37,2013-04-09 15:29:00,
2013-04-09 11:34:00,77.9,65.6,30.12,ENE,63,11.5,11.5,66,0.00,CLR,OVC,0.00,WeatherDisplay:10.37,2013-04-09 15:34:00,
2013-04-09 11:39:00,77.9,66.1,30.12,ENE,65,12.7,12.7,67,0.00,CLR,OVC,0.00,WeatherDisplay:10.37,2013-04-09 15:39:00,
2013-04-09 11:44:00,77.9,66.1,30.12,NE,53,2.3,2.3,67,0.00,CLR,OVC,0.00,WeatherDisplay:10.37,2013-04-09 15:44:00,
2013-04-09 11:49:00,77.9,66.1,30.12,NNE,28,5.8,0.0,67,0.00,CLR,OVC,0.00,WeatherDisplay:10.37,2013-04-09 15:49:00,
2013-04-09 11:54:00,77.9,66.1,30.12,South,169,5.8,5.8,67,0.00,CLR,OVC,0.00,WeatherDisplay:10.37,2013-04-09 15:54:00,
2013-04-09 11:59:00,77.9,66.1,30.12,ENE,71,24.2,24.2,67,0.00,CLR,OVC,0.00,WeatherDisplay:10.37,2013-04-09 15:59:00,
2013-04-09 12:05:00,77.9,66.1,30.12,ENE,76,6.9,6.9,67,0.00,,OVC,0.00,WeatherDisplay:10.37,2013-04-09 16:05:00,
2013-04-09 12:10:00,78.3,66.4,30.12,NNE,17,0.0,0.0,67,0.00,,OVC,0.00,WeatherDisplay:10.37,2013-04-09 16:10:00,
2013-04-09 12:15:00,78.5,66.2,30.12,ENE,65,24.0,24.0,66,0.00,,OVC,0.00,WeatherDisplay:10.37,2013-04-09 16:15:00,
2013-04-09 12:20:00,78.1,66.2,30.12,ENE,78,6.9,6.9,67,0.00,,OVC,0.00,WeatherDisplay:10.37,2013-04-09 16:20:00,
2013-04-09 12:25:00,78.1,66.2,30.12,ESE,115,13.8,13.8,67,0.00,,OVC,0.00,WeatherDisplay:10.37,2013-04-09 16:25:00,
2013-04-09 12:30:00,78.3,66.4,30.11,NE,53,18.4,18.4,67,0.00,,OVC,0.00,WeatherDisplay:10.37,2013-04-09 16:30:00,
2013-04-09 12:35:00,78.3,66.0,30.11,East,89,25.3,25.3,66,0.00,,OVC,0.00,WeatherDisplay:10.37,2013-04-09 16:35:00,
2013-04-09 12:40:00,78.3,66.0,30.11,SE,128,11.5,11.5,66,0.00,,OVC,0.00,WeatherDisplay:10.37,2013-04-09 16:40:00,
2013-04-09 12:45:00,78.1,66.2,30.10,ENE,62,19.6,19.6,67,0.00,,OVC,0.00,WeatherDisplay:10.37,2013-04-09 16:45:00,
2013-04-09 12:50:00,78.3,66.0,30.10,ENE,63,5.8,5.8,66,0.00,,OVC,0.00,WeatherDisplay:10.37,2013-04-09 16:50:00,
2013-04-09 12:55:00,78.5,66.2,30.10,NE,41,6.9,6.9,66,0.00,,OVC,0.00,WeatherDisplay:10.37,2013-04-09 16:55:00,
2013-04-09 13:00:00,78.5,65.8,30.10,ENE,59,23.0,23.0,65,0.00,,OVC,0.00,WeatherDisplay:10.37,2013-04-09 17:00:00,
2013-04-09 13:05:00,78.6,65.8,30.10,NNE,32,20.7,20.7,65,0.00,,OVC,0.00,WeatherDisplay:10.37,2013-04-09 17:05:00,
2013-04-09 13:10:00,78.6,66.3,30.10,NNE,32,10.4,10.4,66,0.00,,OVC,0.00,WeatherDisplay:10.37,2013-04-09 17:10:00,
2013-04-09 13:15:00,78.6,65.4,30.10,NE,56,3.5,3.5,64,0.00,,OVC,0.00,WeatherDisplay:10.37,2013-04-09 17:15:00,
2013-04-09 13:20:00,78.6,65.4,30.10,NE,46,10.4,0.0,64,0.00,,OVC,0.00,WeatherDisplay:10.37,2013-04-09 17:20:00,
2013-04-09 13:25:00,78.5,65.3,30.10,ENE,57,0.0,0.0,64,0.00,,OVC,0.00,WeatherDisplay:10.37,2013-04-09 17:25:00,
2013-04-09 13:30:00,78.6,65.8,30.10,ENE,71,11.5,11.5,65,0.00,,OVC,0.00,WeatherDisplay:10.37,2013-04-09 17:30:00,
2013-04-09 13:35:00,78.6,65.4,30.10,NNE,24,1.2,0.0,64,0.00,,OVC,0.00,WeatherDisplay:10.37,2013-04-09 17:35:00,
2013-04-09 13:40:00,78.8,66.0,30.10,East,86,9.2,9.2,65,0.00,,OVC,0.00,WeatherDisplay:10.37,2013-04-09 17:40:00,
2013-04-09 13:45:00,79.0,65.8,30.10,NE,55,8.0,8.0,64,0.00,,OVC,0.00,WeatherDisplay:10.37,2013-04-09 17:45:00,
2013-04-09 13:50:00,78.6,65.4,30.10,ENE,61,19.6,0.0,64,0.00,,OVC,0.00,WeatherDisplay:10.37,2013-04-09 17:50:00,
2013-04-09 13:55:00,78.8,65.6,30.10,East,88,1.2,1.4,64,0.00,,OVC,0.00,WeatherDisplay:10.37,2013-04-09 17:55:00,
2013-04-09 14:01:00,79.0,65.8,30.09,ENE,74,0.0,1.1,64,0.00,,OVC,0.00,WeatherDisplay:10.37,2013-04-09 18:01:00,
2013-04-09 14:06:00,79.0,65.8,30.09,ENE,67,1.2,3.1,64,0.00,,OVC,0.00,WeatherDisplay:10.37,2013-04-09 18:06:00,
2013-04-09 14:11:00,78.8,65.6,30.09,NE,42,0.0,1.6,64,0.00,,OVC,0.00,WeatherDisplay:10.37,2013-04-09 18:11:00,
2013-04-09 14:16:00,78.8,65.6,30.09,ENE,57,17.3,0.0,64,0.00,,OVC,0.00,WeatherDisplay:10.37,2013-04-09 18:16:00,
2013-04-09 14:21:00,79.0,65.3,30.09,ENE,66,21.9,21.9,63,0.00,,OVC,0.00,WeatherDisplay:10.37,2013-04-09 18:21:00,
2013-04-09 14:26:00,79.4,66.2,30.09,NNE,32,8.1,8.1,64,0.00,,OVC,0.00,WeatherDisplay:10.37,2013-04-09 18:26:00,
2013-04-09 14:31:00,79.8,66.1,30.08,SSE,150,12.0,12.0,63,0.00,,OVC,0.00,WeatherDisplay:10.37,2013-04-09 18:31:00,
2013-04-09 14:36:00,80.3,65.6,30.08,ENE,67,5.8,0.0,61,0.00,,OVC,0.00,WeatherDisplay:10.37,2013-04-09 18:36:00,
2013-04-09 14:41:00,80.1,66.4,30.08,East,96,22.0,22.0,63,0.00,,OVC,0.00,WeatherDisplay:10.37,2013-04-09 18:41:00,
2013-04-09 14:46:00,79.4,66.2,30.07,NE,53,21.9,21.9,64,0.00,,OVC,0.00,WeatherDisplay:10.37,2013-04-09 18:46:00,
2013-04-09 14:51:00,79.0,65.8,30.07,SSE,147,1.2,1.2,64,0.00,,OVC,0.00,WeatherDisplay:10.37,2013-04-09 18:51:00,
2013-04-09 14:56:00,79.0,66.2,30.07,SSE,150,20.7,20.7,65,0.00,,OVC,0.00,WeatherDisplay:10.37,2013-04-09 18:56:00,
2013-04-09 15:01:00,78.5,65.3,30.07,NE,39,0.0,0.0,64,0.00,,OVC,0.00,WeatherDisplay:10.37,2013-04-09 19:01:00,
2013-04-09 15:06:00,78.3,66.0,30.07,East,82,6.9,6.9,66,0.00,,OVC,0.00,WeatherDisplay:10.37,2013-04-09 19:06:00,
2013-04-09 15:11:00,78.3,66.0,30.07,East,80,15.0,15.0,66,0.00,,OVC,0.00,WeatherDisplay:10.37,2013-04-09 19:11:00,
2013-04-09 15:16:00,78.6,66.3,30.07,East,89,9.2,9.2,66,0.00,,OVC,0.00,WeatherDisplay:10.37,2013-04-09 19:16:00,
2013-04-09 15:21:00,79.4,66.2,30.07,ENE,69,19.0,19.0,64,0.00,,OVC,0.00,WeatherDisplay:10.37,2013-04-09 19:21:00,
2013-04-09 15:27:00,79.2,66.0,30.07,East,88,1.2,1.2,64,0.00,,OVC,0.00,WeatherDisplay:10.37,2013-04-09 19:27:00,
2013-04-09 15:32:00,79.2,66.0,30.07,ENE,68,13.8,13.8,64,0.00,,OVC,0.00,WeatherDisplay:10.37,2013-04-09 19:32:00,
2013-04-09 15:37:00,78.8,66.0,30.07,East,99,25.0,25.0,65,0.00,,OVC,0.00,WeatherDisplay:10.37,2013-04-09 19:37:00,
2013-04-09 15:42:00,78.3,65.6,30.07,ENE,61,11.5,11.5,65,0.00,,OVC,0.00,WeatherDisplay:10.37,2013-04-09 19:42:00,
2013-04-09 15:47:00,78.5,66.2,30.06,East,90,3.5,3.5,66,0.00,,OVC,0.00,WeatherDisplay:10.37,2013-04-09 19:47:00,
2013-04-09 15:52:00,78.3,65.6,30.06,ENE,69,11.5,11.5,65,0.00,,OVC,0.00,WeatherDisplay:10.37,2013-04-09 19:52:00,
2013-04-09 15:57:00,77.9,65.6,30.06,ENE,75,20.7,20.7,66,0.00,,OVC,0.00,WeatherDisplay:10.37,2013-04-09 19:57:00,
2013-04-09 16:02:00,77.7,65.9,30.06,ENE,72,7.0,7.0,67,0.00,,OVC,0.00,WeatherDisplay:10.37,2013-04-09 20:02:00,
2013-04-09 16:07:00,77.6,65.8,30.06,ENE,76,12.0,12.0,67,0.00,,OVC,0.00,WeatherDisplay:10.37,2013-04-09 20:07:00,
2013-04-09 16:12:00,77.6,64.9,30.06,ENE,62,13.8,13.8,65,0.00,,OVC,0.00,WeatherDisplay:10.37,2013-04-09 20:12:00,
2013-04-09 16:17:00,77.9,65.2,30.06,East,83,5.8,0.0,65,0.00,,OVC,0.00,WeatherDisplay:10.37,2013-04-09 20:17:00,
2013-04-09 16:22:00,78.3,65.1,30.06,East,90,20.7,20.7,64,0.00,,OVC,0.00,WeatherDisplay:10.37,2013-04-09 20:22:00,
2013-04-09 16:28:00,78.1,64.9,30.06,ENE,60,19.6,0.0,64,0.00,,OVC,0.00,WeatherDisplay:10.37,2013-04-09 20:28:00,
2013-04-09 16:33:00,78.5,65.8,30.06,ENE,67,9.0,9.0,65,0.00,,OVC,0.00,WeatherDisplay:10.37,2013-04-09 20:33:00,
2013-04-09 16:38:00,78.5,65.3,30.06,ENE,62,0.0,0.0,64,0.00,,OVC,0.00,WeatherDisplay:10.37,2013-04-09 20:38:00,
2013-04-09 16:44:00,78.5,65.3,30.06,East,88,16.1,16.1,64,0.00,,OVC,0.00,WeatherDisplay:10.37,2013-04-09 20:44:00,
2013-04-09 16:49:00,78.5,65.8,30.06,ENE,64,0.0,0.0,65,0.00,,OVC,0.00,WeatherDisplay:10.37,2013-04-09 20:49:00,
2013-04-09 16:54:00,78.6,64.5,30.06,SE,130,0.0,0.0,62,0.00,,OVC,0.00,WeatherDisplay:10.37,2013-04-09 20:54:00,
2013-04-09 16:59:00,78.8,65.1,30.06,ENE,66,20.7,20.7,63,0.00,,OVC,0.00,WeatherDisplay:10.37,2013-04-09 20:59:00,
2013-04-09 17:05:00,78.3,65.1,30.06,East,82,17.3,17.3,64,0.00,,OVC,0.00,WeatherDisplay:10.37,2013-04-09 21:05:00,
2013-04-09 17:10:00,78.1,64.9,30.06,NE,43,11.5,11.5,64,0.00,,OVC,0.00,WeatherDisplay:10.37,2013-04-09 21:10:00,
2013-04-09 17:15:00,78.3,64.7,30.06,East,80,13.8,13.8,63,0.00,,OVC,0.00,WeatherDisplay:10.37,2013-04-09 21:15:00,
2013-04-09 17:20:00,78.1,64.9,30.06,ENE,68,23.0,23.0,64,0.00,,OVC,0.00,WeatherDisplay:10.37,2013-04-09 21:20:00,
2013-04-09 17:25:00,78.1,64.5,30.06,ENE,70,4.0,4.0,63,0.00,,OVC,0.00,WeatherDisplay:10.37,2013-04-09 21:25:00,
2013-04-09 17:30:00,77.7,64.5,30.06,ENE,74,0.0,0.0,64,0.00,,OVC,0.00,WeatherDisplay:10.37,2013-04-09 21:30:00,
2013-04-09 17:35:00,77.7,64.5,30.06,ENE,64,15.0,15.0,64,0.00,,OVC,0.00,WeatherDisplay:10.37,2013-04-09 21:35:00,
2013-04-09 17:40:00,77.7,63.6,30.06,East,89,0.0,0.0,62,0.00,,OVC,0.00,WeatherDisplay:10.37,2013-04-09 21:40:00,
2013-04-09 17:45:00,77.6,63.5,30.06,ENE,74,8.1,8.1,62,0.00,,OVC,0.00,WeatherDisplay:10.37,2013-04-09 21:45:00,
2013-04-09 17:50:00,77.4,64.3,30.06,ENE,69,18.4,18.4,64,0.00,,OVC,0.00,WeatherDisplay:10.37,2013-04-09 21:50:00,
2013-04-09 17:55:00,77.2,64.1,30.06,East,86,11.5,11.5,64,0.00,,OVC,0.00,WeatherDisplay:10.37,2013-04-09 21:55:00,
2013-04-09 18:00:00,77.2,63.6,30.06,ENE,59,11.5,11.5,63,0.00,,OVC,0.00,WeatherDisplay:10.37,2013-04-09 22:00:00,
2013-04-09 18:06:00,77.0,63.9,30.06,ENE,71,11.5,11.5,64,0.00,,OVC,0.00,WeatherDisplay:10.37,2013-04-09 22:06:00,
2013-04-09 18:11:00,76.8,63.7,30.06,ENE,63,13.8,13.8,64,0.00,,OVC,0.00,WeatherDisplay:10.37,2013-04-09 22:11:00,
2013-04-09 18:16:00,76.7,62.7,30.06,ENE,63,6.9,0.0,62,0.00,,OVC,0.00,WeatherDisplay:10.37,2013-04-09 22:16:00,
2013-04-09 18:21:00,76.5,63.4,30.06,ENE,68,13.8,13.8,64,0.00,,OVC,0.00,WeatherDisplay:10.37,2013-04-09 22:21:00,
2013-04-09 18:26:00,76.5,63.4,30.06,ENE,65,16.1,16.1,64,0.00,,OVC,0.00,WeatherDisplay:10.37,2013-04-09 22:26:00,
2013-04-09 18:31:00,76.3,63.7,30.07,NE,49,15.0,15.0,65,0.00,,OVC,0.00,WeatherDisplay:10.37,2013-04-09 22:31:00,
2013-04-09 18:36:00,76.3,63.7,30.07,NE,56,11.5,11.5,65,0.00,,OVC,0.00,WeatherDisplay:10.37,2013-04-09 22:36:00,
2013-04-09 18:41:00,76.3,63.2,30.07,ENE,72,9.0,9.0,64,0.00,,OVC,0.00,WeatherDisplay:10.37,2013-04-09 22:41:00,
2013-04-09 18:46:00,76.1,63.9,30.06,NE,52,16.1,16.1,66,0.00,,OVC,0.00,WeatherDisplay:10.37,2013-04-09 22:46:00,
2013-04-09 18:51:00,76.0,63.8,30.06,ENE,62,0.0,0.5,66,0.00,,OVC,0.00,WeatherDisplay:10.37,2013-04-09 22:51:00,
2013-04-09 18:56:00,75.8,63.6,30.06,ENE,67,18.4,18.4,66,0.00,,OVC,0.00,WeatherDisplay:10.37,2013-04-09 22:56:00,
2013-04-09 19:02:00,75.6,63.4,30.06,ENE,71,9.2,9.2,66,0.00,,OVC,0.00,WeatherDisplay:10.37,2013-04-09 23:02:00,
2013-04-09 19:07:00,75.6,63.9,30.06,NE,54,3.5,3.5,67,0.00,,OVC,0.00,WeatherDisplay:10.37,2013-04-09 23:07:00,
2013-04-09 19:12:00,75.4,63.7,30.06,NE,49,11.5,11.5,67,0.00,,OVC,0.00,WeatherDisplay:10.37,2013-04-09 23:12:00,
2013-04-09 19:17:00,75.4,64.1,30.06,NE,52,2.0,2.0,68,0.00,,OVC,0.00,WeatherDisplay:10.37,2013-04-09 23:17:00,
2013-04-09 19:22:00,75.3,64.0,30.06,ENE,71,9.0,9.0,68,0.00,,OVC,0.00,WeatherDisplay:10.37,2013-04-09 23:22:00,
2013-04-09 19:28:00,75.3,64.4,30.06,ENE,68,8.1,8.1,69,0.00,,OVC,0.00,WeatherDisplay:10.37,2013-04-09 23:28:00,
2013-04-09 19:33:00,75.3,64.8,30.06,East,87,17.3,17.3,70,0.00,,OVC,0.00,WeatherDisplay:10.37,2013-04-09 23:33:00,
2013-04-09 19:38:00,75.1,64.6,30.06,ENE,69,12.7,12.7,70,0.00,,OVC,0.00,WeatherDisplay:10.37,2013-04-09 23:38:00,
2013-04-09 19:43:00,74.9,64.9,30.06,ENE,75,10.0,10.0,71,0.00,,OVC,0.00,WeatherDisplay:10.37,2013-04-09 23:43:00,
2013-04-09 19:48:00,74.9,64.9,30.06,ENE,63,17.3,17.3,71,0.00,,OVC,0.00,WeatherDisplay:10.37,2013-04-09 23:48:00,
2013-04-09 19:53:00,74.7,64.3,30.06,ENE,59,11.5,11.5,70,0.00,,OVC,0.00,WeatherDisplay:10.37,2013-04-09 23:53:00,
2013-04-09 19:58:00,74.7,64.7,30.06,ENE,64,9.2,9.2,71,0.00,,OVC,0.00,WeatherDisplay:10.37,2013-04-09 23:58:00,
2013-04-09 20:03:00,74.6,64.6,30.07,ENE,57,6.9,6.9,71,0.00,,OVC,0.00,WeatherDisplay:10.37,2013-04-10 00:03:00,
2013-04-09 20:08:00,74.6,64.6,30.07,NE,56,6.9,6.9,71,0.00,,OVC,0.00,WeatherDisplay:10.37,2013-04-10 00:08:00,
2013-04-09 20:13:00,74.4,64.4,30.07,ENE,60,11.0,11.0,71,0.00,,OVC,0.00,WeatherDisplay:10.37,2013-04-10 00:13:00,
2013-04-09 20:18:00,74.4,64.4,30.07,NNE,22,1.2,0.0,71,0.00,,OVC,0.00,WeatherDisplay:10.37,2013-04-10 00:18:00,
2013-04-09 20:23:00,74.4,64.8,30.07,ENE,59,3.5,0.0,72,0.00,,OVC,0.00,WeatherDisplay:10.37,2013-04-10 00:23:00,
2013-04-09 20:28:00,74.4,64.8,30.07,ENE,63,11.5,11.5,72,0.00,,OVC,0.00,WeatherDisplay:10.37,2013-04-10 00:28:00,
2013-04-09 20:33:00,74.2,65.0,30.07,NE,53,19.6,19.6,73,0.00,,OVC,0.00,WeatherDisplay:10.37,2013-04-10 00:33:00,
2013-04-09 20:38:00,74.2,65.0,30.07,ENE,67,1.2,0.0,73,0.00,,OVC,0.00,WeatherDisplay:10.37,2013-04-10 00:38:00,
2013-04-09 20:43:00,74.0,64.8,30.07,NE,42,11.0,11.0,73,0.00,,OVC,0.00,WeatherDisplay:10.37,2013-04-10 00:43:00,
2013-04-09 20:48:00,74.0,64.8,30.07,ENE,67,5.8,5.8,73,0.00,,OVC,0.00,WeatherDisplay:10.37,2013-04-10 00:48:00,
2013-04-09 20:53:00,74.0,64.8,30.07,ENE,61,13.0,13.0,73,0.00,,OVC,0.00,WeatherDisplay:10.37,2013-04-10 00:53:00,
2013-04-09 20:58:00,74.0,64.8,30.07,ENE,74,15.0,15.0,73,0.00,,OVC,0.00,WeatherDisplay:10.37,2013-04-10 00:58:00,
2013-04-09 21:03:00,74.0,64.8,30.08,ENE,78,0.0,0.0,73,0.00,,OVC,0.00,WeatherDisplay:10.37,2013-04-10 01:03:00,
2013-04-09 21:08:00,73.9,64.3,30.08,ENE,63,3.5,0.0,72,0.00,,OVC,0.00,WeatherDisplay:10.37,2013-04-10 01:08:00,
2013-04-09 21:13:00,73.9,64.3,30.08,NE,45,10.0,10.0,72,0.00,,OVC,0.00,WeatherDisplay:10.37,2013-04-10 01:13:00,
2013-04-09 21:18:00,73.9,63.9,30.08,ENE,57,1.2,1.2,71,0.00,,OVC,0.00,WeatherDisplay:10.37,2013-04-10 01:18:00,
2013-04-09 21:23:00,74.0,64.0,30.08,ENE,65,12.7,12.7,71,0.00,,OVC,0.00,WeatherDisplay:10.37,2013-04-10 01:23:00,
2013-04-09 21:28:00,74.0,64.0,30.08,ENE,61,4.6,4.6,71,0.00,,OVC,0.00,WeatherDisplay:10.37,2013-04-10 01:28:00,
2013-04-09 21:33:00,74.0,64.0,30.07,ENE,78,9.2,9.2,71,0.00,,OVC,0.00,WeatherDisplay:10.37,2013-04-10 01:33:00,
2013-04-09 21:38:00,74.0,64.0,30.07,ENE,67,4.6,4.6,71,0.00,,OVC,0.00,WeatherDisplay:10.37,2013-04-10 01:38:00,
2013-04-09 21:43:00,74.0,64.0,30.07,ENE,58,8.1,8.1,71,0.00,,OVC,0.00,WeatherDisplay:10.37,2013-04-10 01:43:00,
2013-04-09 21:49:00,74.0,64.0,30.08,East,93,1.2,0.0,71,0.00,,OVC,0.00,WeatherDisplay:10.37,2013-04-10 01:49:00,
2013-04-09 21:54:00,74.0,64.0,30.08,NE,35,10.4,10.4,71,0.00,,OVC,0.00,WeatherDisplay:10.37,2013-04-10 01:54:00,
2013-04-09 21:59:00,74.0,64.0,30.08,East,82,8.1,8.1,71,0.00,,OVC,0.00,WeatherDisplay:10.37,2013-04-10 01:59:00,
2013-04-09 22:03:00,73.9,63.9,30.08,ENE,75,8.1,8.1,71,0.00,,OVC,0.00,WeatherDisplay:10.37,2013-04-10 02:03:00,
2013-04-09 22:08:00,73.9,63.9,30.08,ENE,63,3.5,3.5,71,0.00,,OVC,0.00,WeatherDisplay:10.37,2013-04-10 02:08:00,
2013-04-09 22:14:00,73.9,63.9,30.08,North,5,0.0,0.1,71,0.00,,OVC,0.00,WeatherDisplay:10.37,2013-04-10 02:14:00,
2013-04-09 22:19:00,73.9,64.3,30.08,NE,56,3.5,3.5,72,0.00,,OVC,0.00,WeatherDisplay:10.37,2013-04-10 02:19:00,
2013-04-09 22:24:00,73.9,64.3,30.08,ENE,69,11.5,11.5,72,0.00,,OVC,0.00,WeatherDisplay:10.37,2013-04-10 02:24:00,
2013-04-09 22:29:00,73.9,64.3,30.08,NNE,30,16.1,16.1,72,0.00,,OVC,0.00,WeatherDisplay:10.37,2013-04-10 02:29:00,
2013-04-09 22:34:00,74.0,64.8,30.07,North,360,3.0,3.0,73,0.00,,OVC,0.00,WeatherDisplay:10.37,2013-04-10 02:34:00,
2013-04-09 22:39:00,74.0,64.8,30.07,ENE,71,2.3,2.3,73,0.00,,OVC,0.00,WeatherDisplay:10.37,2013-04-10 02:39:00,
2013-04-09 22:44:00,73.9,65.1,30.07,ENE,70,10.4,10.4,74,0.00,,OVC,0.00,WeatherDisplay:10.37,2013-04-10 02:44:00,
2013-04-09 22:49:00,73.9,65.1,30.07,ENE,57,0.0,0.0,74,0.00,,OVC,0.00,WeatherDisplay:10.37,2013-04-10 02:49:00,
2013-04-09 22:54:00,73.9,65.1,30.07,ENE,66,0.0,0.0,74,0.00,,OVC,0.00,WeatherDisplay:10.37,2013-04-10 02:54:00,
2013-04-09 22:59:00,73.7,64.9,30.07,East,82,3.5,3.5,74,0.00,,OVC,0.00,WeatherDisplay:10.37,2013-04-10 02:59:00,
2013-04-09 23:04:00,73.7,65.3,30.07,ENE,65,0.0,0.0,75,0.00,,OVC,0.00,WeatherDisplay:10.37,2013-04-10 03:04:00,
2013-04-09 23:09:00,73.7,65.3,30.07,ESE,103,0.0,0.0,75,0.00,,OVC,0.00,WeatherDisplay:10.37,2013-04-10 03:09:00,
2013-04-09 23:14:00,73.7,65.3,30.07,East,85,4.6,4.6,75,0.00,,OVC,0.00,WeatherDisplay:10.37,2013-04-10 03:14:00,
2013-04-09 23:19:00,73.5,65.1,30.07,NE,55,12.7,12.7,75,0.00,,OVC,0.00,WeatherDisplay:10.37,2013-04-10 03:19:00,
2013-04-09 23:24:00,73.7,65.3,30.07,ENE,74,0.0,0.0,75,0.00,,OVC,0.00,WeatherDisplay:10.37,2013-04-10 03:24:00,
2013-04-09 23:29:00,73.5,65.1,30.07,ENE,61,3.5,3.5,75,0.00,,OVC,0.00,WeatherDisplay:10.37,2013-04-10 03:29:00,
2013-04-09 23:34:00,73.5,65.1,30.07,ENE,61,0.0,0.0,75,0.00,,OVC,0.00,WeatherDisplay:10.37,2013-04-10 03:34:00,
2013-04-09 23:39:00,73.5,65.1,30.07,NE,42,2.3,2.3,75,0.00,,OVC,0.00,WeatherDisplay:10.37,2013-04-10 03:39:00,
2013-04-09 23:44:00,73.5,65.1,30.07,ENE,63,3.0,3.0,75,0.00,,OVC,0.00,WeatherDisplay:10.37,2013-04-10 03:44:00,
2013-04-09 23:49:00,73.3,64.9,30.07,East,94,5.0,5.0,75,0.00,,OVC,0.00,WeatherDisplay:10.37,2013-04-10 03:49:00,
2013-04-09 23:54:00,73.3,65.3,30.07,ENE,68,0.0,0.0,76,0.00,,OVC,0.00,WeatherDisplay:10.37,2013-04-10 03:54:00,
2013-04-09 23:59:00,73.3,65.3,30.07,ENE,59,0.0,0.0,76,0.00,,OVC,0.00,WeatherDisplay:10.37,2013-04-10 03:59:00,